Location: DARK SKY Beskydy - Park tmavé oblohy, www.darkskybeskydy.cz
(49.4926°N, 18.5016°E)
Time: 01:26:24
(UTC+01:00)

Tiangong - Pass Details

Date: 10 December 2022
Orbit: 383 x 386 km, 41.5° (Epoch: 28 January)

Event Time Altitude Azimuth Distance (km) Brightness Sun altitude
Rises 16:23:37 0° 254° (WSW) 2,252 3.8 -5.9°
Reaches altitude 10° 16:26:10 10° 233° (SW) 1,399 2.4 -6.3°
Maximum altitude 16:28:17 17° 191° (S) 1,072 0.7 -6.6°
Drops below altitude 10° 16:30:23 10° 149° (SSE) 1,400 0.7 -6.9°
Sets 16:32:56 0° 127° (SE) 2,255 1.5 -7.3°
